Tracking 18980 objects as of 22-Feb-2018
HD Live streaming from Space Station
objects crossing your sky now

WESTFORD NEEDLES

Track WESTFORD NEEDLES now!
10-day predictions
WESTFORD NEEDLES is classified as:


NORAD ID: 2997
Int'l Code: 1963-014AU
Perigee: 2,792.7 km
Apogee: 4,334.6 km
Inclination: 86.9 °
Period: 164.2 minutes
Semi major axis: 9934 km
RCS: 0.1993 m2 (medium)
Launch date: May 9, 1963
Source: United States (US)
Launch site: AIR FORCE WESTERN TEST RANGE (AFWTR)
aabbcc
Your satellite tracking list
Your tracking list is empty




NASA's NSSDC Master Catalog

Two Line Element Set (TLE):
1 02997U 63014AU  18052.25737213 -.00000783  00000-0 -24093+0 0  9994
2 02997  86.8539 171.3262 0776030  35.5027 329.5035  8.76748642 50098
Source of the keplerian elements: AFSPC